[[{"header":{"parameterUnit":"m.s-1","parameterCategory":1,"la1":30.2991,"la2":30.254,"lo1":-89.0895,"lo2":-89.0444,"dy":0.0017,"dx":0.0017,"nx":28,"ny":28,"refTime":"2025-12-10T03:00:00:Z","depth":0,"parameterNumber":2,"parameterNumberName":"U-component_of_WINDS"},"data":[0,0,0,0,0,0,0,0,0,0,0,0,0,0,0,0,0,0,0,0,0,0,0,0,0,0,0,0,0,0,0,0,0,0,0,0,0,0,0,0,0,0,0,0,0,0,0,0,0,0,0,0,0,0,0,0,0,0,2.9564,2.9565,0,2.968,2.9681,2.9683,2.9665,2.9664,2.9662,2.966,2.978,2.9785,2.979,0,0,0,0,0,0,0,0,0,0,0,0,0,2.9329,2.9334,2.9563,2.9565,2.9566,2.968,2.9681,2.9683,2.9666,2.9663,2.9661,2.9659,2.9779,2.9785,2.9791,0,0,0,0,0,0,0,0,0,0,0,0,0,2.9437,2.9335,2.9563,2.9571,2.9573,2.9679,2.9681,2.9683,2.9666,2.9663,2.966,2.9658,2.9777,2.9784,2.9792,2.9897,0,0,2.9815,2.9818,0,0,0,0,0,0,0,0,2.9431,2.9446,2.9569,2.9571,2.9573,2.9655,2.9643,2.9755,2.9667,2.9631,2.966,2.9656,2.9741,2.9752,2.978,2.9903,2.9908,2.9815,2.982,2.9823,2.9825,0,0,0,0,0,0,0,2.9423,2.944,2.961,2.9571,2.9574,2.957,2.9582,2.9664,2.9701,2.9634,2.9633,2.9647,2.9742,2.9773,2.9783,2.991,2.9815,2.9822,2.9827,2.983,3.0127,3.0131,0,0,0,0,0,0,2.9413,2.9434,2.9606,2.9613,2.9493,2.9577,2.959,2.9632,2.97,2.9708,2.9649,2.9646,2.9761,2.9774,2.9787,2.9916,2.9823,2.983,2.9835,3.0124,3.0128,3.0132,0,0,0,0,0,0,2.9408,2.9429,2.9601,2.9524,2.9545,2.9584,2.9631,2.9636,2.9666,2.9712,2.9719,2.9674,2.9759,2.9776,2.987,2.992,2.9834,2.9841,3.012,3.0125,3.013,3.0175,0,0,0,0,0,0,2.9402,2.9427,2.9467,2.9525,2.9549,2.9682,2.9634,2.964,2.9679,2.9676,2.9737,2.9744,2.9758,2.9859,2.9878,2.9929,2.9847,3.0116,3.0122,3.0128,3.0169,3.018,3.019,0,0,0,0,0,2.9393,2.9475,2.9469,2.949,2.96,2.9685,2.9699,2.9714,2.9683,2.9724,2.9754,2.9742,2.9912,2.9869,2.989,2.9944,3.0113,3.0121,3.0128,3.0164,3.0178,3.019,0,0,0,0,0,0,2.9422,2.9482,2.9477,2.9579,2.9627,2.9682,2.9733,2.9728,2.9786,2.978,2.9796,2.981,2.9906,2.9934,2.9886,3.0051,3.0008,3.002,3.0028,3.0042,3.0053,3.0044,2.9853,0,0,0,0,0,2.944,2.9503,2.9553,2.9638,2.9663,2.9694,2.9732,2.9739,2.9789,2.981,2.9846,2.9896,2.9961,3.0003,3.0065,3.0173,3.0187,3.0221,3.0231,3.024,3.0251,3.0311,3.0327,3.0157,3.0157,3.0156,0,0,2.9478,2.9519,2.9558,2.9645,2.9683,2.9749,2.9711,2.9782,2.9832,2.9821,2.9912,2.9941,2.9998,3.01,3.0146,3.0126,3.0301,3.025,3.0256,3.0262,3.0321,3.0337,3.0351,3.0162,3.0161,3.016,0,0,2.9582,2.9619,2.9694,2.9734,2.9792,2.9812,2.9831,2.9887,2.9906,2.9997,2.9991,3.005,3.0161,3.0202,3.0238,3.0359,3.0351,3.0379,3.0436,3.0495,3.0508,3.052,3.0564,3.058,3.0389,3.0389,3.0389,0,2.9622,2.972,2.9734,2.9807,2.9846,2.9839,2.9917,2.9954,3.003,3.0057,3.0034,3.0174,3.0212,3.0324,3.0354,3.0382,3.0405,3.0372,3.0505,3.0517,3.0529,3.0571,3.0587,3.0392,3.0392,3.0392,3.0391,0,2.9767,2.9836,2.9891,2.9964,3.0009,3.0084,3.011,3.0155,3.0159,3.0182,3.0277,3.0322,3.0394,3.0421,3.0425,3.0535,3.052,3.0501,3.0459,3.0548,3.0588,3.0604,3.0397,3.0396,3.0395,3.0394,0,0,2.9891,2.9972,2.9992,3.0025,3.009,3.0144,3.0219,3.0289,3.0327,3.038,3.0445,3.0539,3.0522,3.0563,3.0572,3.0624,3.0718,3.0598,3.06,3.0619,3.0843,3.0857,3.0876,3.0713,3.0716,3.0719,3.0838,0,3.0001,3.0133,3.0148,3.0266,3.0331,3.0326,3.0392,3.0439,3.0464,3.0523,3.055,3.0618,3.0589,3.0614,3.0665,3.0696,3.0763,3.0687,3.0774,3.0777,3.076,3.0896,3.0911,3.1022,3.0854,3.0857,3.0858,0,3.0146,3.0203,3.0328,3.0385,3.0413,3.0471,3.0538,3.0594,3.0648,3.0663,3.0709,3.0712,3.0791,3.0746,3.0856,3.0804,3.084,3.0861,3.0866,3.0875,3.0823,3.0909,3.1057,3.1074,3.0883,3.0881,3.0879,0,3.0224,3.0333,3.0422,3.0451,3.0519,3.0561,3.0592,3.0643,3.0685,3.0743,3.077,3.0837,3.0874,3.0926,3.0948,3.0913,3.1057,3.1014,3.1072,3.1072,3.1103,3.11,3.1259,3.1126,3.1126,3.1125,3.1125,0,3.0346,3.0422,3.0458,3.0512,3.0599,3.0617,3.0702,3.0731,3.0777,3.0838,3.0839,3.0896,3.0921,3.0983,3.1001,3.109,3.1106,3.1121,3.1124,3.1121,3.1119,3.1145,3.1138,3.113,3.1129,3.1128,3.1127,0,3.0447,3.0474,3.0571,3.0628,3.0645,3.0706,3.0755,3.0809,3.0833,3.0911,3.093,3.0969,3.1042,3.1069,3.1158,3.117,3.1273,3.127,3.1255,3.1256,3.1313,3.1307,3.1494,3.1519,3.1369,3.1371,3.1372,0,3.0522,3.0581,3.0645,3.0686,3.0718,3.0784,3.0827,3.0848,3.0892,3.096,3.1006,3.1078,3.1137,3.1255,3.1291,3.136,3.1359,3.142,3.1369,3.1364,3.1361,3.1357,3.1363,3.1429,3.1431,3.1432,3.1433,0,3.0654,3.0665,3.0726,3.0792,3.0843,3.0897,3.0949,3.0983,3.1011,3.1062,3.1136,3.1182,3.1274,3.1346,3.1417,3.145,3.1447,3.1449,3.1466,3.1463,3.1451,3.1459,3.128,3.1444,3.1443,3.1442,3.1441,3.1441,3.0745,3.0797,3.0851,3.092,3.0961,3.101,3.1064,3.1095,3.1158,3.1233,3.1242,3.1323,3.1378,3.1472,3.1509,3.1573,3.1556,3.1581,3.1588,3.1593,3.1598,3.1441,3.1586,3.1585,3.1585,3.1585,3.1585,0,3.0876,3.0911,3.0974,3.1047,3.1102,3.1094,3.1152,3.1198,3.1269,3.132,3.1379,3.1465,3.1536,3.1579,3.1651,3.1694,3.1695,3.1712,3.1709,3.1717,3.1608,3.1586,3.1711,3.1711,3.1711,3.1711,3.1711,3.171,3.0951,3.104,3.1058,3.1168,3.1202,3.1281,3.1315,3.1361,3.1402,3.1499,3.1557,3.1585,3.1633,3.1709,3.1774,3.1785,3.1812,3.1831,3.184,3.1738,3.1725,3.1712,3.1692,3.1836,3.1836,3.1944,3.1945,3.1946]},{"header":{"parameterUnit":"m.s-1","parameterCategory":1,"la1":30.2991,"la2":30.254,"lo1":-89.0895,"lo2":-89.0444,"dy":0.0017,"dx":0.0017,"nx":28,"ny":28,"refTime":"2025-12-10T03:00:00:Z","depth":0,"parameterNumber":3,"parameterNumberName":"V-component_of_WINDS"},"data":[0,0,0,0,0,0,0,0,0,0,0,0,0,0,0,0,0,0,0,0,0,0,0,0,0,0,0,0,0,0,0,0,0,0,0,0,0,0,0,0,0,0,0,0,0,0,0,0,0,0,0,0,0,0,0,0,0,0,-2.7596,-2.7596,0,-2.7641,-2.7642,-2.7642,-2.7637,-2.7637,-2.7636,-2.7635,-2.7686,-2.7688,-2.769,0,0,0,0,0,0,0,0,0,0,0,0,0,-2.751,-2.7512,-2.7596,-2.7596,-2.7597,-2.7641,-2.7642,-2.7642,-2.7638,-2.7637,-2.7636,-2.7635,-2.7685,-2.7688,-2.769,0,0,0,0,0,0,0,0,0,0,0,0,0,-2.7551,-2.7512,-2.7596,-2.76,-2.7601,-2.7641,-2.7642,-2.7642,-2.7638,-2.7637,-2.7636,-2.7635,-2.7684,-2.7687,-2.769,-2.7731,0,0,-2.77,-2.7701,0,0,0,0,0,0,0,0,-2.7548,-2.7554,-2.7599,-2.76,-2.76,-2.7632,-2.763,-2.7672,-2.7638,-2.7624,-2.7635,-2.7634,-2.7669,-2.7673,-2.7684,-2.7733,-2.7735,-2.77,-2.7702,-2.7703,-2.7704,0,0,0,0,0,0,0,-2.7545,-2.7552,-2.7614,-2.7599,-2.76,-2.7601,-2.7605,-2.7638,-2.7652,-2.7625,-2.7625,-2.763,-2.767,-2.7681,-2.7686,-2.7736,-2.77,-2.7702,-2.7704,-2.7705,-2.7822,-2.7824,0,0,0,0,0,0,-2.7541,-2.7549,-2.7612,-2.7615,-2.7571,-2.7603,-2.7608,-2.7623,-2.7652,-2.7655,-2.7631,-2.7629,-2.7677,-2.7682,-2.7687,-2.7738,-2.7703,-2.7706,-2.7708,-2.7821,-2.7823,-2.7824,0,0,0,0,0,0,-2.7539,-2.7547,-2.7611,-2.7582,-2.759,-2.7606,-2.7623,-2.7625,-2.7637,-2.7656,-2.7659,-2.764,-2.7676,-2.7683,-2.772,-2.774,-2.7707,-2.771,-2.782,-2.7822,-2.7823,-2.7839,0,0,0,0,0,0,-2.7537,-2.7546,-2.756,-2.7583,-2.7592,-2.7641,-2.7624,-2.7626,-2.7641,-2.764,-2.7666,-2.7669,-2.7676,-2.7716,-2.7723,-2.7743,-2.7712,-2.7818,-2.782,-2.7823,-2.7836,-2.7841,-2.7844,0,0,0,0,0,-2.7534,-2.7563,-2.7561,-2.7569,-2.761,-2.7642,-2.7648,-2.7654,-2.7643,-2.7658,-2.7671,-2.7668,-2.7736,-2.7719,-2.7728,-2.7749,-2.7817,-2.782,-2.7822,-2.7835,-2.784,-2.7844,0,0,0,0,0,0,-2.7544,-2.7566,-2.7564,-2.7601,-2.762,-2.7641,-2.7661,-2.7659,-2.7682,-2.768,-2.7688,-2.7694,-2.7732,-2.7744,-2.7725,-2.7791,-2.7775,-2.778,-2.7781,-2.7787,-2.7791,-2.7787,-2.7715,0,0,0,0,0,-2.7551,-2.7573,-2.7592,-2.7624,-2.7633,-2.7645,-2.766,-2.7663,-2.7683,-2.7691,-2.7706,-2.7727,-2.7753,-2.7771,-2.7796,-2.7838,-2.7845,-2.7857,-2.7861,-2.7864,-2.7868,-2.7894,-2.79,-2.7833,-2.7833,-2.7833,0,0,-2.7565,-2.758,-2.7594,-2.7626,-2.7641,-2.7666,-2.7652,-2.7679,-2.7698,-2.7696,-2.7731,-2.7744,-2.7768,-2.7808,-2.7826,-2.7819,-2.7888,-2.7868,-2.787,-2.7873,-2.7897,-2.7904,-2.7909,-2.7835,-2.7835,-2.7835,0,0,-2.7603,-2.7616,-2.7644,-2.7659,-2.7681,-2.7689,-2.7696,-2.7718,-2.7726,-2.7762,-2.7761,-2.7785,-2.7829,-2.7847,-2.7861,-2.7908,-2.7906,-2.7916,-2.7937,-2.7962,-2.7967,-2.7972,-2.799,-2.7996,-2.792,-2.792,-2.792,0,-2.7618,-2.7655,-2.7659,-2.7687,-2.7702,-2.7699,-2.7729,-2.7744,-2.7773,-2.7785,-2.7776,-2.7832,-2.7848,-2.7894,-2.7905,-2.7916,-2.7926,-2.7913,-2.7966,-2.797,-2.7975,-2.7992,-2.7999,-2.7921,-2.7921,-2.7921,-2.7921,0,-2.7673,-2.7699,-2.7719,-2.7747,-2.7764,-2.7792,-2.7803,-2.782,-2.7822,-2.7832,-2.787,-2.7889,-2.7918,-2.7929,-2.7932,-2.7975,-2.797,-2.7963,-2.7948,-2.7982,-2.7999,-2.8006,-2.7922,-2.7922,-2.7922,-2.7921,0,0,-2.772,-2.775,-2.7757,-2.777,-2.7795,-2.7816,-2.7845,-2.7872,-2.7888,-2.7909,-2.7935,-2.7973,-2.7967,-2.7984,-2.7989,-2.801,-2.8048,-2.8001,-2.8001,-2.801,-2.8099,-2.8105,-2.8113,-2.8046,-2.8048,-2.8049,-2.8098,0,-2.7762,-2.7812,-2.7817,-2.7863,-2.7888,-2.7886,-2.7912,-2.7931,-2.7941,-2.7965,-2.7977,-2.8004,-2.7993,-2.8004,-2.8024,-2.8038,-2.8066,-2.8035,-2.8073,-2.8074,-2.8068,-2.8121,-2.8127,-2.8172,-2.8104,-2.8105,-2.8106,0,-2.7818,-2.7839,-2.7887,-2.7909,-2.792,-2.7942,-2.7969,-2.7991,-2.8013,-2.802,-2.8039,-2.8041,-2.8073,-2.8056,-2.8101,-2.808,-2.8096,-2.8106,-2.8108,-2.8113,-2.8093,-2.8129,-2.8187,-2.8194,-2.8116,-2.8115,-2.8114,0,-2.7849,-2.789,-2.7924,-2.7935,-2.7961,-2.7978,-2.799,-2.8011,-2.8028,-2.8051,-2.8063,-2.809,-2.8106,-2.8128,-2.8139,-2.8125,-2.8185,-2.8168,-2.8192,-2.8192,-2.8206,-2.8205,-2.8269,-2.8214,-2.8214,-2.8214,-2.8214,0,-2.7896,-2.7926,-2.7938,-2.7959,-2.7993,-2.8,-2.8034,-2.8046,-2.8064,-2.8089,-2.809,-2.8114,-2.8125,-2.8151,-2.816,-2.8197,-2.8204,-2.8212,-2.8214,-2.8212,-2.8211,-2.8224,-2.8221,-2.8216,-2.8215,-2.8215,-2.8215,0,-2.7937,-2.7946,-2.7984,-2.8005,-2.8012,-2.8036,-2.8055,-2.8077,-2.8087,-2.8118,-2.8126,-2.8143,-2.8174,-2.8186,-2.8224,-2.823,-2.8274,-2.8273,-2.8266,-2.8267,-2.8291,-2.8289,-2.8366,-2.8377,-2.8314,-2.8314,-2.8315,0,-2.7967,-2.7989,-2.8013,-2.8029,-2.8042,-2.8068,-2.8085,-2.8093,-2.8111,-2.8138,-2.8157,-2.8187,-2.8212,-2.8262,-2.8279,-2.8308,-2.8309,-2.8334,-2.8313,-2.8312,-2.8311,-2.831,-2.8313,-2.8338,-2.8338,-2.8339,-2.8339,0,-2.802,-2.8023,-2.8047,-2.8073,-2.8093,-2.8114,-2.8134,-2.8148,-2.8159,-2.818,-2.8211,-2.823,-2.8269,-2.83,-2.833,-2.8345,-2.8345,-2.8345,-2.8353,-2.8352,-2.8348,-2.8352,-2.8277,-2.8344,-2.8343,-2.8343,-2.8343,-2.8343,-2.8057,-2.8078,-2.8098,-2.8125,-2.8141,-2.816,-2.8182,-2.8194,-2.822,-2.8251,-2.8254,-2.8288,-2.8312,-2.8353,-2.8368,-2.8396,-2.839,-2.8401,-2.8404,-2.8406,-2.8409,-2.8342,-2.8402,-2.8402,-2.8402,-2.8401,-2.8401,0,-2.8111,-2.8124,-2.8148,-2.8177,-2.8198,-2.8195,-2.8218,-2.8237,-2.8266,-2.8287,-2.8311,-2.8348,-2.8378,-2.8397,-2.8428,-2.8447,-2.8448,-2.8455,-2.8454,-2.8458,-2.8412,-2.8403,-2.8454,-2.8454,-2.8454,-2.8454,-2.8454,-2.8454,-2.8142,-2.8177,-2.8183,-2.8227,-2.824,-2.8272,-2.8286,-2.8305,-2.8321,-2.8362,-2.8386,-2.8398,-2.8419,-2.8452,-2.848,-2.8485,-2.8498,-2.8505,-2.851,-2.8467,-2.8461,-2.8456,-2.8448,-2.8507,-2.8508,-2.8554,-2.8555,-2.8555]}]]